Simultaneous Nadir Overpasses (SNOs) Predictions

Prediction of SNOs between GOES-17 and TERRA Satellite Orbit:

Table of predicted SNOs for the next 14.0 days since TLE Epoch: 5/23/2025
Index Date Time (GOES-17) GOES-17 Lat,Lon TERRA Lat,Lon Distance(km) Time Diff (sec)
1 05/24/2025 04:15:03 -0.03,-104.38 0.25,-103.20 134.98 80
2 05/24/2025 16:34:31 0.02,-104.44 0.76,-107.94 396.94 80
3 05/26/2025 16:18:05 0.02,-104.45 -0.20,-103.34 125.98 80
4 05/27/2025 04:37:43 -0.02,-104.39 -0.77,-108.12 423.21 80
5 05/29/2025 04:15:56 -0.01,-104.39 0.16,-103.51 99.45 80
6 05/29/2025 16:35:25 0.00,-104.44 0.80,-108.25 432.75 80
7 05/31/2025 16:18:59 -0.00,-104.45 -0.19,-103.66 90.56 80
8 06/01/2025 04:38:36 0.00,-104.39 -0.81,-108.43 458.10 80
9 06/03/2025 04:16:49 0.01,-104.40 0.15,-103.82 66.06 80
10 06/03/2025 16:36:17 -0.01,-104.46 0.82,-108.57 466.08 80
11 06/05/2025 16:19:51 -0.01,-104.47 -0.14,-103.96 58.66 80
12 06/06/2025 04:39:26 0.01,-104.42 -0.90,-108.73 489.43 80
